Location: Melque
(41.0517°N, 4.4694°W)
Time: 04:42:51
(UTC+00:00)

Cosmos 2082 - Pass Details

Date: 11 December 2025
Orbit: 831 x 855 km, 71.0° (Epoch: 13 January)

Event Time Altitude Azimuth Distance (km) Brightness Sun altitude
Rises 19:24:38 0° 335° (NNW) 3,425 7.1 -28.4°
Reaches altitude 10° 19:27:06 10° 334° (NNW) 2,488 6.3 -28.8°
Enters shadow 19:32:24 73° 295° (WNW) 893 3.8 -29.8°
